North Wilkesboro, NC

4:18 PM EDT on August 23, 2019 (GMT -0400)
Wilkes County

Weather History for KUKF - May, 2019

Change the Weather History Date:

Thursday, May 23, 2019

  Actual Average Record
Temperature  
Mean Temperature 75 °F -  
Max Temperature 86 °F 79 °F 90 °F (1970)
Min Temperature 64 °F 54 °F 37 °F (2002)
Cooling Degree Days 10    
Growing Degree Days 25 (Base 50)    
Moisture  
Dew Point 69 °F    
Average Humidity 89    
Maximum Humidity 100    
Minimum Humidity 62    
Precipitation  
Precipitation 0.00 in - - ()
Sea Level Pressure  
Sea Level Pressure 30.27 in    
Wind  
Wind Speed 2 mph (SSW)    
Max Wind Speed 13 mph    
Max Gust Speed -    
Visibility 9 miles    
Events Rain    
Averages and records for this station are not official NWS values.
T = Trace of Precipitation, MM = Missing Value Source: NWS Daily Summary

Daily Weather History Graph

Daily Weather History Graph

Search for Another Location

Airport or City:

Astronomy

May. 23, 2019 Rise Set
Actual Time 6:12 AM EDT 8:29 PM EDT
Civil Twilight 5:43 AM EDT 8:59 PM EDT
Nautical Twilight 5:07 AM EDT 9:35 PM EDT
Astronomical Twilight 4:28 AM EDT 10:14 PM EDT
Moon 12:11 AM EDT 10:15 AM EDT
Length of Visible Light 15h 15m
Length of Day
14h 17m
Waning Gibbous, 77% of the Moon is Illuminated
May 23
Waning Gibbous
May 26
Last Quarter
Jun 3
New
Jun 10
First Quarter
Jun 17
Full

Hourly Weather History & Observations

Time (EDT) Temp. Heat Index Dew Point Humidity Pressure Visibility Wind Dir Wind Speed Gust Speed Precip Events Conditions
12:00 AM 66.2 °F - 64.4 °F 94% 30.33 in 10.0 mi Calm Calm - N/A   Overcast
12:20 AM 66.2 °F - 66.2 °F 100% 30.32 in 10.0 mi Calm Calm - N/A   Overcast
12:40 AM 66.2 °F - 66.2 °F 100% 30.32 in 10.0 mi NNE 3.5 mph - N/A   Overcast
1:00 AM 64.4 °F - 64.4 °F 100% 30.32 in 10.0 mi Calm Calm - N/A   Overcast
1:20 AM 64.4 °F - 64.4 °F 100% 30.32 in 10.0 mi Calm Calm - N/A   Overcast
1:40 AM 64.4 °F - 64.4 °F 100% 30.31 in 10.0 mi Calm Calm - N/A   Overcast
2:00 AM 64.4 °F - 64.4 °F 100% 30.30 in 10.0 mi Calm Calm - N/A   Overcast
2:20 AM 64.4 °F - 64.4 °F 100% 30.30 in 10.0 mi Calm Calm - N/A   Overcast
2:40 AM 64.4 °F - 64.4 °F 100% 30.30 in 10.0 mi Calm Calm - N/A   Overcast
3:00 AM 64.4 °F - 64.4 °F 100% 30.30 in 10.0 mi Calm Calm - N/A   Overcast
3:20 AM 64.4 °F - 64.4 °F 100% 30.29 in 10.0 mi Calm Calm - N/A   Overcast
3:40 AM 64.4 °F - 64.4 °F 100% 30.29 in 10.0 mi North 3.5 mph - N/A   Overcast
4:00 AM 64.4 °F - 64.4 °F 100% 30.30 in 7.0 mi Calm Calm - N/A   Overcast
4:20 AM 64.4 °F - 64.4 °F 100% 30.31 in 10.0 mi Calm Calm - N/A   Overcast
4:40 AM 64.4 °F - 64.4 °F 100% 30.30 in 7.0 mi Calm Calm - N/A   Overcast
5:00 AM 64.4 °F - 64.4 °F 100% 30.30 in 7.0 mi Calm Calm - N/A   Overcast
5:20 AM 64.4 °F - 64.4 °F 100% 30.30 in 7.0 mi Calm Calm - N/A   Overcast
5:40 AM 64.4 °F - 64.4 °F 100% 30.30 in 10.0 mi Calm Calm - N/A   Overcast
6:00 AM 64.4 °F - 64.4 °F 100% 30.30 in 7.0 mi Calm Calm - N/A   Overcast
6:20 AM 64.4 °F - 64.4 °F 100% 30.31 in 7.0 mi Calm Calm - N/A   Overcast
6:40 AM 64.4 °F - 64.4 °F 100% 30.31 in 7.0 mi Calm Calm - N/A Rain Light Rain
7:00 AM 64.4 °F - 64.4 °F 100% 30.32 in 5.0 mi Calm Calm - N/A   Light Drizzle
7:20 AM 64.4 °F - 64.4 °F 100% 30.32 in 7.0 mi Calm Calm - N/A   Overcast
7:40 AM 64.4 °F - 64.4 °F 100% 30.32 in 7.0 mi Calm Calm - N/A   Overcast
8:00 AM 66.2 °F - 66.2 °F 100% 30.32 in 7.0 mi SSW 3.5 mph - N/A   Overcast
8:20 AM 66.2 °F - 66.2 °F 100% 30.33 in 7.0 mi Calm Calm - N/A   Overcast
8:40 AM 68.0 °F - 68.0 °F 100% 30.33 in 7.0 mi Calm Calm - N/A   Overcast
9:00 AM 68.0 °F - 68.0 °F 100% 30.34 in 10.0 mi Calm Calm - N/A   Overcast
9:20 AM 69.8 °F - 69.8 °F 100% 30.34 in 10.0 mi SSW 4.6 mph - N/A   Overcast
9:40 AM 69.8 °F - 69.8 °F 100% 30.34 in 10.0 mi SW 3.5 mph - N/A   Overcast
10:00 AM 71.6 °F - 69.8 °F 94% 30.33 in 10.0 mi SSW 3.5 mph - N/A   Scattered Clouds
10:20 AM 73.4 °F - 69.8 °F 88% 30.33 in 10.0 mi Calm Calm - N/A   Mostly Cloudy
10:40 AM 73.4 °F - 69.8 °F 88% 30.33 in 10.0 mi South 6.9 mph - N/A   Overcast
11:00 AM 71.6 °F - 69.8 °F 94% 30.33 in 10.0 mi SSW 6.9 mph - N/A   Overcast
11:20 AM 71.6 °F - 69.8 °F 94% 30.33 in 10.0 mi South 6.9 mph - N/A   Overcast
11:40 AM 73.4 °F - 69.8 °F 88% 30.33 in 10.0 mi WSW 4.6 mph - N/A   Overcast
12:00 PM 73.4 °F - 69.8 °F 88% 30.32 in 10.0 mi SSW 5.8 mph - N/A   Overcast
12:20 PM 77.0 °F - 71.6 °F 83% 30.32 in 10.0 mi SW 5.8 mph - N/A   Overcast
12:40 PM 77.0 °F - 71.6 °F 83% 30.31 in 10.0 mi SW 8.1 mph - N/A   Mostly Cloudy
1:00 PM 78.8 °F - 69.8 °F 74% 30.30 in 10.0 mi South 4.6 mph - N/A   Mostly Cloudy
1:20 PM 78.8 °F - 71.6 °F 78% 30.30 in 10.0 mi South 8.1 mph - N/A   Mostly Cloudy
1:40 PM 78.8 °F - 71.6 °F 78% 30.29 in 10.0 mi South 8.1 mph - N/A   Scattered Clouds
2:00 PM 80.6 °F 84.6 °F 71.6 °F 74% 30.28 in 10.0 mi SSW 5.8 mph - N/A   Scattered Clouds
2:20 PM 80.6 °F 83.9 °F 69.8 °F 70% 30.27 in 10.0 mi South 6.9 mph - N/A   Scattered Clouds
2:40 PM 80.6 °F 84.6 °F 71.6 °F 74% 30.26 in 10.0 mi SSW 5.8 mph - N/A   Scattered Clouds
3:00 PM 80.6 °F 84.6 °F 71.6 °F 74% 30.25 in 10.0 mi South 6.9 mph - N/A   Scattered Clouds
3:20 PM 80.6 °F 84.6 °F 71.6 °F 74% 30.24 in 10.0 mi South 3.5 mph - N/A   Clear
3:40 PM 82.4 °F 87.2 °F 71.6 °F 70% 30.24 in 10.0 mi South 8.1 mph - N/A   Scattered Clouds
4:20 PM 86.0 °F 91.8 °F 71.6 °F 62% 30.22 in 10.0 mi South 8.1 mph - N/A   Clear
4:40 PM 82.4 °F 86.3 °F 69.8 °F 66% 30.21 in 10.0 mi SSW 11.5 mph - N/A   Clear
5:00 PM 84.2 °F 88.4 °F 69.8 °F 62% 30.20 in 10.0 mi SSW 8.1 mph - N/A   Clear
5:20 PM 82.4 °F 86.3 °F 69.8 °F 66% 30.20 in 10.0 mi SSW 8.1 mph - N/A   Clear
5:40 PM 82.4 °F 87.2 °F 71.6 °F 70% 30.20 in 10.0 mi North - - N/A   Clear
6:00 PM 82.4 °F 86.3 °F 69.8 °F 66% 30.19 in 10.0 mi SSW 12.7 mph - N/A   Clear
6:20 PM 82.4 °F 86.3 °F 69.8 °F 66% 30.19 in 10.0 mi North - - N/A   Clear
6:40 PM 82.4 °F 87.2 °F 71.6 °F 70% 30.19 in 10.0 mi North - - N/A   Clear
7:00 PM 80.6 °F 84.6 °F 71.6 °F 74% 30.19 in 10.0 mi SSW 10.4 mph - N/A   Clear
7:20 PM 80.6 °F 84.6 °F 71.6 °F 74% 30.18 in 10.0 mi SSW 6.9 mph - N/A   Clear
7:40 PM 78.8 °F - 71.6 °F 78% 30.18 in 10.0 mi SSW 6.9 mph - N/A   Clear
8:00 PM 78.8 °F - 71.6 °F 78% 30.18 in 10.0 mi SSW 4.6 mph - N/A   Clear
8:20 PM 78.8 °F - 71.6 °F 78% 30.19 in 10.0 mi SSW 5.8 mph - N/A   Clear
8:40 PM 77.0 °F - 71.6 °F 83% 30.19 in 10.0 mi Calm Calm - N/A   Clear
9:00 PM 75.2 °F - 71.6 °F 89% 30.19 in 10.0 mi SW 3.5 mph - N/A   Clear
9:20 PM 75.2 °F - 71.6 °F 89% 30.19 in 10.0 mi SW 3.5 mph - N/A   Clear
9:40 PM 73.4 °F - 71.6 °F 94% 30.20 in 10.0 mi Calm Calm - N/A   Clear
10:00 PM 73.4 °F - 71.6 °F 94% 30.20 in 10.0 mi Calm Calm - N/A   Clear
10:20 PM 73.4 °F - 71.6 °F 94% 30.21 in 10.0 mi Calm Calm - N/A   Clear
10:40 PM 71.6 °F - 71.6 °F 100% 30.20 in 10.0 mi WSW 3.5 mph - N/A   Clear
11:00 PM 71.6 °F - 71.6 °F 100% 30.20 in 10.0 mi WSW 4.6 mph - N/A   Clear
11:20 PM 71.6 °F - 71.6 °F 100% 30.22 in 10.0 mi West 5.8 mph - N/A   Clear
11:40 PM 71.6 °F - 71.6 °F 100% 30.22 in 10.0 mi WSW 4.6 mph - N/A   Clear